"Pseudo-MPEC" for P21K0Tr

Created 2023 Sep 20 2:22:34 UT using Find_Orb

Click here for an explanation of pseudo-MPECs

 
 Astrometry: 
     P21K0Tr  C2023 09 18.28709 00 59 14.18 +06 03 49.8    ~9JMb 20.1 GVNEOCP703
     P21K0Tr  C2023 09 18.29762 00 59 14.21 +06 07 06.9    ~9JMb 20.1 GVNEOCP703
     P21K0Tr* C2023 09 19O!g_UMAstrometrym?kL_je(plG:i#s01fd:JlaSAbuZ=M6mSv^?F52
     P21K0Tr  C2023 09 19X.eY#T]v9a*$UUJbk$]Ku_Re-+;E$sSD-0RD,q]GU;der'0v5K$AF52
     P21K0Tr  C2023 09 197e'R0_=)3N614an\pd8[O1`aZO38qJ#xV3]\QAI%WZmrOOh9B#B-F52
     P21K0Tr  C2023 09 19?\n2[8]+p[)x49H9p(aB161$24!?.redacted;]4bIoT,UJgKT`IF51
     P21K0Tr KB2023 09 19.86608301 00 55.82 +14 10 44.8    ~9JLM 19.4 GVNEOCPI93
     P21K0Tr KB2023 09 19.86987601 00 55.93 +14 11 54.6    ~9JLM 19.4 GVNEOCPI93
     P21K0Tr 1C2023 09 19.87008 01 00 53.95 +14 11 47.7    ~9JL7 20.1 VXNEOCP033
     P21K0Tr 1C2023 09 19.87060 01 00 53.96 +14 11 57.3    ~9JL7 20.2 VXNEOCP033
     P21K0Tr 1C2023 09 19.87111 01 00 53.97 +14 12 06.7    ~9JL7 20.1 VXNEOCP033
     P21K0Tr 1C2023 09 19.87178 01 00 54.00 +14 12 20.0    ~9JL7 20.1 VXNEOCP033
     P21K0Tr KB2023 09 19.87363401 00 56.03 +14 13 05.1    ~9JLM 20.2 GVNEOCPI93
     P21K0Tr KC2023 09 19hyK\J.Cls3Wxly?T6-`WplfA47Ot:qM@SwNPDG!yrGRkUiyq)0huL01
     P21K0Tr KC2023 09 19vc/g8][/1!=bOG`Q?P7=])sL\DUl2*BuncgQDwFnYO;?[51LSnUtL01
     P21K0Tr KC2023 09 197J)]73Yf'BT3g+)gybn\w)qbV$0e*^#/g:FTt26@I]KR$$ousQLVL01
     P21K0Tr KC2023 09 19h2'xxe6Ut#ot1CaG:'pQ-#VerQ8I#oKE',CYr34F6^A!'\IucsMJ203
     P21K0Tr KC2023 09 19v)6H4NKkCQ6%]3^/Fs06W+78g`4*4aUdDk3X?8I=i9B'LjLyb0_y203
     P21K0Tr KB2023 09 20IL:7W(x2lBW%TPrclickWmap5BvpgHIgdZ'=]SWtd_Lv,H-e^]3+958
     P21K0Tr KB2023 09 20y]AAYkb[:*EN1bedt9O3?%?gg+CKhVVA9Q=LB%-7/,?@I+_hereC958
     P21K0Tr KB2023 09 20xh0forGP+45)9W_pyS!%xuexplanationgi+s.%vmd?lRP0Z;hoD958

Station data:
(033) Karl Schwarzschild Observatory, Tautenburg  (N50.980137 E11.711240)
   Germany.  Observer B. Stecklum. 1.34-m f/3 Schmidt + CCD.
(203) GiaGa Observatory  (N45.541405 E8.995500)  Italy.  Observers S. Foglia,
   G. Galli. Measurer G. Galli. 0.36-m f/5.76 Schmidt-Cassegrain + CCD.
(703) Catalina Sky Survey  (N32.417003 W110.732640)  US/Arizona.  Observers
   T. A. Pruyne, B. M. Africano, E. J. Christensen, G. A. Farneth, D. C.
   Fuls, A. R. Gibbs, A. D. Grauer, H. Gröller, J. A. Johnson, R. A.
   Kowalski, S. M. Larson, G. J. Leonard, D. Rankin, R. L. Seaman, F. C.
   Shelly, K. W. Wierzchoś. 0.68 m Schmidt + 10K CCD.
(958) Observatoire de Dax  (N43.693324 W1.030390)  France.  Observer P.
   Dupouy. 0.32-m Schmidt-Cassegrain.
(F51) Pan-STARRS 1, Haleakala  (N20.707234 W156.255910)  US/Hawaii.
   Observers J. Bulger, T. Lowe, A. Schultz, M. Willman. Measurers K.
   Chambers, S. Chastel, T. de Boer, L. Denneau, J. Fairlamb, H. Flewelling,
   M. Huber, C.-C. Lin, E. Magnier, Y. Ramanjooloo, R. Wainscoat, R. Weryk.
   1.8-m Ritchey-Chrétien + CCD.
(F52) Pan-STARRS 2, Haleakala  (N20.707382 W156.255910)  US/Hawaii.
   Observers J. Bulger, T. Dukes, T. Lowe, A. Schultz, M. Willman. Measurers
   K. Chambers, S. Chastel, T. de Boer, L. Denneau, J. Fairlamb, H.
   Flewelling, M. Huber, C.-C. Lin, E. Magnier, Y. Ramanjooloo, R. Wainscoat,
   R. Weryk. 1.8-m Ritchey-Chrétien + CCD.
(I93) St Pardon de Conques  (N44.558708 W0.203000)  France.  Observers F.
   Losse, W. D'Anna. Measurer F. Losse. 0.40-m f/3.7 reflector + CCD.
(L01) Višnjan Observatory, Tičan  (N45.290897 E13.749300)  Croatia.
   Observers K. Korlević, D. Pujagic, V. Dobos. Measurers D. Pujagic, K.
   Korlević. 1.0-m f/2.9 reflector + CCD.

Orbital elements:  P21K0Tr
   Perihelion 2023 Sep 28.22343 +/- 0.0208 TT =  5:21:43 (JD 2460215.72343)
Epoch 2023 Sep 20.0 TT = JDT 2460207.5   Earth MOID: 0.0408      AutoNEOCP
M 355.34325240 +/- 0.017            (J2000 ecliptic)
n   0.56627834 +/- 0.00075          Peri.   10.34156 +/- 0.020
a   1.44693630 +/- 0.00128          Node   355.70326 +/- 0.0013
e   0.2797748 +/- 0.000587          Incl.   10.77877 +/- 0.015
P   1.74/635.72d           H 25.77  G  0.15   U  7.9
q 1.04211989 +/- 7.17e-5    Q 1.85175270 +/- 0.00249
From 21 observations 2023 Sept. 18-20 (42.2 hr); mean residual 0".41
Residuals in arcseconds: 
230918 703  .48-  .43-    230919 I93  .06+  .19-    230919 L01  .40-  .14+    
230918 703  .39+  .54+    230919 033  .03-  .04+    230919 L01  .11+  .08+    
230919 F52  .16+  .23-    230919 033  .09-  .02+    230919 203  .16-  .55+    
230919 F52  .13+  .15-    230919 033  .14-  .02-    230919 203  .06+  .84+    
230919 F52  .18+  .10-    230919 033  .04+  .88+    230920 958  .13-  1.0-    
230919 F51  .30-  .13+    230919 I93  .29-  .60+    230920 958  .34+  .52-    
230919 I93  .35+  .38+    230919 L01  .75-  .19-    230920 958  .81+  .74-    

Ephemerides (geocentric):
Date (UTC) HH   RA             Dec           delta  r     elong  mag " sig PA
---- --------  ------------   ------------  ------ ------ -----  --- --------
2023 09 20 02  01 00 59.956   +15 19 00.30  .04399 1.0446 155.3 20.2 .245 162
2023 09 20 03  01 01 02.462   +15 31 40.31  .04401 1.0446 155.2 20.2 .261 163
2023 09 20 04  01 01 04.966   +15 44 19.49  .04403 1.0446 155.1 20.2 .278 164
2023 09 20 05  01 01 07.467   +15 56 57.84  .04405 1.0446 155.0 20.2 .295 165
2023 09 20 06  01 01 09.966   +16 09 35.32  .04408 1.0445 154.9 20.2 .313 165
2023 09 20 07  01 01 12.462   +16 22 11.92  .04410 1.0445 154.7 20.2 .331 166
2023 09 20 08  01 01 14.955   +16 34 47.61  .04412 1.0445 154.6 20.2 .350 167
2023 09 20 09  01 01 17.446   +16 47 22.38  .04415 1.0445 154.5 20.2 .370 167
2023 09 20 10  01 01 19.934   +16 59 56.21  .04417 1.0444 154.4 20.2 .390 168
2023 09 20 11  01 01 22.420   +17 12 29.07  .04420 1.0444 154.3 20.2 .411 169
2023 09 20 12  01 01 24.903   +17 25 00.94  .04423 1.0444 154.2 20.2 .432 169
2023 09 20 13  01 01 27.384   +17 37 31.81  .04426 1.0444 154.1 20.2 .454 170
2023 09 20 14  01 01 29.862   +17 50 01.65  .04428 1.0443 153.9 20.2 .477 170
2023 09 20 15  01 01 32.337   +18 02 30.45  .04431 1.0443 153.8 20.2 .500 170
2023 09 20 16  01 01 34.810   +18 14 58.18  .04434 1.0443 153.7 20.3 .524 171
2023 09 20 17  01 01 37.280   +18 27 24.83  .04437 1.0443 153.6 20.3 .548 171
2023 09 20 18  01 01 39.748   +18 39 50.37  .04440 1.0442 153.5 20.3 .573 172
2023 09 20 19  01 01 42.213   +18 52 14.79  .04443 1.0442 153.4 20.3 .598 172
2023 09 20 20  01 01 44.676   +19 04 38.07  .04447 1.0442 153.2 20.3 .624 172
2023 09 20 21  01 01 47.136   +19 17 00.19  .04450 1.0442 153.1 20.3 .651 172
2023 09 20 22  01 01 49.594   +19 29 21.13  .04453 1.0442 153.0 20.3 .678 173
2023 09 20 23  01 01 52.049   +19 41 40.88  .04457 1.0441 152.9 20.3 .706 173
2023 09 21 00  01 01 54.501   +19 53 59.40  .04460 1.0441 152.7 20.3 .734 173
2023 09 21 01  01 01 56.952   +20 06 16.70  .04463 1.0441 152.6 20.3 .762 174
2023 09 21 02  01 01 59.399   +20 18 32.74  .04467 1.0441 152.5 20.3 .792 174
2023 09 21 03  01 02 01.845   +20 30 47.52  .04471 1.0440 152.4 20.3 .821 174
2023 09 21 04  01 02 04.287   +20 43 01.01  .04474 1.0440 152.2 20.3 .852 174
2023 09 21 05  01 02 06.728   +20 55 13.20  .04478 1.0440 152.1 20.3 .882 174
2023 09 21 06  01 02 09.166   +21 07 24.07  .04482 1.0440 152.0 20.3 .913 175
2023 09 21 07  01 02 11.601   +21 19 33.60  .04486 1.0439 151.9 20.3 .945 175
2023 09 21 08  01 02 14.034   +21 31 41.78  .04490 1.0439 151.7 20.3 .977 175
2023 09 21 09  01 02 16.465   +21 43 48.59  .04493 1.0439 151.6 20.3 1.01 175
2023 09 21 10  01 02 18.893   +21 55 54.01  .04498 1.0439 151.5 20.3 1.04 175
2023 09 21 11  01 02 21.319   +22 07 58.03  .04502 1.0439 151.4 20.4 1.08 176
2023 09 21 12  01 02 23.742   +22 20 00.64  .04506 1.0438 151.2 20.4 1.11 176
2023 09 21 13  01 02 26.163   +22 32 01.81  .04510 1.0438 151.1 20.4 1.15 176
2023 09 21 14  01 02 28.582   +22 44 01.54  .04514 1.0438 151.0 20.4 1.18 176
2023 09 21 15  01 02 30.998   +22 55 59.80  .04519 1.0438 150.9 20.4 1.22 176
2023 09 21 16  01 02 33.412   +23 07 56.59  .04523 1.0438 150.7 20.4 1.25 176
2023 09 21 17  01 02 35.823   +23 19 51.88  .04527 1.0437 150.6 20.4 1.29 176
2023 09 21 18  01 02 38.232   +23 31 45.66  .04532 1.0437 150.5 20.4 1.32 177
2023 09 21 19  01 02 40.639   +23 43 37.93  .04536 1.0437 150.3 20.4 1.36 177
2023 09 21 20  01 02 43.043   +23 55 28.66  .04541 1.0437 150.2 20.4 1.40 177
2023 09 21 21  01 02 45.445   +24 07 17.83  .04546 1.0437 150.1 20.4 1.44 177
2023 09 21 22  01 02 47.845   +24 19 05.45  .04550 1.0436 150.0 20.4 1.48 177
2023 09 21 23  01 02 50.242   +24 30 51.49  .04555 1.0436 149.8 20.4 1.51 177
2023 09 22 00  01 02 52.637   +24 42 35.95  .04560 1.0436 149.7 20.4 1.55 177
2023 09 22 01  01 02 55.030   +24 54 18.80  .04565 1.0436 149.6 20.4 1.59 177